Weather in Rtishchevskiy

Russia / Saratov Oblast     52°19′48″N   43°53′10″E
temp.,
°C
wind,
m/s
gust,
m/s
humid.,
%
clouds,
%
prec.,
mm/h
press.,
hPa
HPBL,
m
16 may, sun
sun1601:00+16s45635 0.0 101476
04:00+15ssw346726 0.0 101448
07:00+15s366715 0.0 1015124
10:00+22s594741 0.0 1015480
13:00+25s71039100 0.0 10151070
16:00+26s5945100 0.0 10151394
19:00+24sse2361100 0.0 101449
22:00+19se336477 0.0 101423
17 may, mon
mon1701:00+18ese4565100 0.0 101558
04:00+17sse345597 0.0 101544
07:00+18se486289 0.0 1015126
10:00+24se51147100 0.0 1016532
13:00+27se7113563 0.0 10151089
16:00+27se7104063 0.0 10151510
19:00+24ese5105379 0.0 1014237
22:00+19ese4115358 0.0 1015148
18 may, tue
tue1801:00+17ese5115166 0.0 1014136
04:00+16ese51252100 0.0 1014165
07:00+16ese5116372 0.0 1014171
10:00+23se6114511 0.0 1013414
13:00+27se811388 0.0 1012907
16:00+28se712395 0.0 10121792
19:00+24ese613475 0.0 1012351
22:00+20ese616510 0.0 1012265
19 may, wed
wed1901:00+21ese820421 0.0 1011463
04:00+18ese617466 0.0 1011352
07:00+18ese7195383 0.0 1010406
10:00+24ese716501 0.0 1010778
13:00+27se8134428 0.0 10101604
16:00+28se71347100 0.0 10092586
19:00+24sse5135895 0.2 1007628
22:00+17sse4881100 1.9 1010227
20 may, thu
thu2001:00+15s1292100 1.0 101050
04:00+15ssw489288 2.4 1011353
07:00+14ssw488751 0.4 1012499
10:00+17ssw577053 0.4 10131200
13:00+17s576871 0.1 10141029
16:00+17sw576958 0.9 1015953
19:00+16sw467438 0.1 1015701
22:00+13ssw33873 0.1 101742